TimeAKST,TemperatureF,Dew PointF,Humidity,Sea Level PressureIn,VisibilityMPH,Wind Direction,Wind SpeedMPH,Gust SpeedMPH,PrecipitationIn,Events,Conditions,WindDirDegrees,DateUTC
12:53 AM,-16.1,-20.9,79,29.91,10.0,Calm,Calm,-,N/A,,Clear,0,2012-12-01 09:53:00
1:53 AM,-20.9,-25.1,81,29.91,10.0,Calm,Calm,-,N/A,,Clear,0,2012-12-01 10:53:00
3:53 AM,-24.0,-29.9,74,29.87,10.0,Calm,Calm,-,N/A,,Clear,0,2012-12-01 12:53:00
4:53 AM,-25.1,-29.9,78,29.88,10.0,Calm,Calm,-,N/A,,Clear,0,2012-12-01 13:53:00
5:53 AM,-22.0,-27.0,77,29.84,10.0,Calm,Calm,-,N/A,,Clear,0,2012-12-01 14:53:00
6:02 AM,-22.0,-27.4,76,29.62,10.0,Calm,Calm,-,N/A,,Clear,0,2012-12-01 15:02:00
6:53 AM,-25.1,-31.0,74,29.83,10.0,Calm,Calm,-,N/A,,Clear,0,2012-12-01 15:53:00
7:53 AM,-11.9,-18.0,74,29.80,10.0,WNW,5.8,-,N/A,,Partly Cloudy,290,2012-12-01 16:53:00
8:53 AM,-26.0,-29.9,81,29.83,10.0,Calm,Calm,-,N/A,,Partly Cloudy,0,2012-12-01 17:53:00
9:53 AM,-11.9,-18.9,71,29.83,10.0,NW,8.1,-,N/A,,Scattered Clouds,310,2012-12-01 18:53:00
10:53 AM,-18.9,-23.1,81,29.84,10.0,Calm,Calm,-,N/A,,Scattered Clouds,0,2012-12-01 19:53:00
11:53 AM,-15.0,-22.0,71,29.82,10.0,Calm,Calm,-,N/A,,Partly Cloudy,0,2012-12-01 20:53:00
12:53 PM,-17.0,-22.0,78,29.81,10.0,SSE,3.5,-,N/A,,Partly Cloudy,150,2012-12-01 21:53:00
1:53 PM,-14.1,-20.0,75,29.79,10.0,Calm,Calm,-,N/A,,Partly Cloudy,0,2012-12-01 22:53:00
2:53 PM,-14.1,-20.0,75,29.77,10.0,Calm,Calm,-,N/A,,Partly Cloudy,0,2012-12-01 23:53:00
3:53 PM,-18.9,-25.1,74,29.78,10.0,SE,4.6,-,N/A,,Partly Cloudy,140,2012-12-02 00:53:00
4:53 PM,-24.0,-27.0,86,29.78,10.0,Calm,Calm,-,N/A,,Clear,0,2012-12-02 01:53:00
5:53 PM,-26.0,-32.1,73,29.77,10.0,Calm,Calm,-,N/A,,Clear,0,2012-12-02 02:53:00
6:53 PM,-27.9,-32.1,81,29.78,10.0,Calm,Calm,-,N/A,,Clear,0,2012-12-02 03:53:00
7:53 PM,-27.9,-33.0,77,29.75,10.0,Calm,Calm,-,N/A,,Clear,0,2012-12-02 04:53:00
8:53 PM,-31.0,-9999,N/A,29.78,10.0,Calm,Calm,-,N/A,,Clear,0,2012-12-02 05:53:00
9:25 PM,-29.2,-9999,N/A,29.48,10.0,Calm,Calm,-,N/A,,Clear,0,2012-12-02 06:25:00
9:53 PM,-31.0,-9999,N/A,29.73,10.0,Calm,Calm,-,N/A,,Clear,0,2012-12-02 06:53:00
10:53 PM,-32.1,-9999,N/A,29.74,10.0,Calm,Calm,-,N/A,,Clear,0,2012-12-02 07:53:00
11:53 PM,-31.0,-9999,N/A,29.74,10.0,Calm,Calm,-,N/A,,Clear,0,2012-12-02 08:53:00